TimePDT,TemperatureF,Dew PointF,Humidity,Sea Level PressureIn,VisibilityMPH,Wind Direction,Wind SpeedMPH,Gust SpeedMPH,PrecipitationIn,Events,Conditions,WindDirDegrees,DateUTC
12:53 AM,57.9,37.9,47,29.97,10.0,ENE,8.1,-,N/A,,Clear,60,2014-08-24 07:53:00
1:53 AM,57.0,37.0,47,29.96,10.0,North,8.1,-,N/A,,Clear,360,2014-08-24 08:53:00
2:53 AM,55.0,43.0,64,29.96,10.0,North,5.8,-,N/A,,Clear,350,2014-08-24 09:53:00
3:53 AM,50.0,42.1,74,29.97,10.0,North,3.5,-,N/A,,Clear,360,2014-08-24 10:53:00
4:53 AM,50.0,43.0,77,29.96,10.0,Calm,Calm,-,N/A,,Clear,0,2014-08-24 11:53:00
5:53 AM,50.0,42.1,74,29.96,10.0,Calm,Calm,-,N/A,,Clear,0,2014-08-24 12:53:00
6:53 AM,45.0,39.0,80,29.97,10.0,Calm,Calm,-,N/A,,Clear,0,2014-08-24 13:53:00
7:08 AM,46.9,39.0,74,30.06,10.0,Calm,Calm,-,0.00,Rain,Light Rain,0,2014-08-24 14:08:00
7:53 AM,55.9,42.1,60,29.96,10.0,Calm,Calm,-,0.00,,Clear,0,2014-08-24 14:53:00
8:53 AM,64.0,44.1,48,29.94,10.0,Variable,4.6,-,N/A,,Clear,0,2014-08-24 15:53:00
9:53 AM,68.0,41.0,37,29.94,10.0,Calm,Calm,-,N/A,,Clear,0,2014-08-24 16:53:00
10:53 AM,70.0,41.0,35,29.92,10.0,Calm,Calm,-,N/A,,Clear,0,2014-08-24 17:53:00
11:53 AM,73.9,37.9,27,29.90,10.0,Calm,Calm,-,N/A,,Clear,0,2014-08-24 18:53:00
12:53 PM,75.9,37.9,25,29.88,10.0,SE,6.9,-,N/A,,Clear,130,2014-08-24 19:53:00
1:53 PM,78.1,36.0,22,29.84,10.0,SE,6.9,-,N/A,,Clear,130,2014-08-24 20:53:00
2:53 PM,80.1,37.0,21,29.81,10.0,SSW,8.1,-,N/A,,Clear,200,2014-08-24 21:53:00
3:53 PM,79.0,36.0,21,29.80,10.0,Variable,5.8,-,N/A,,Scattered Clouds,0,2014-08-24 22:53:00
4:53 PM,79.0,36.0,21,29.78,10.0,NNW,9.2,-,N/A,,Partly Cloudy,340,2014-08-24 23:53:00
5:53 PM,80.1,35.1,20,29.77,10.0,NNW,12.7,-,N/A,,Partly Cloudy,330,2014-08-25 00:53:00
7:53 PM,72.0,43.0,35,29.77,10.0,NNW,16.1,-,N/A,,Clear,330,2014-08-25 02:53:00
8:53 PM,69.1,42.1,38,29.77,10.0,NNW,17.3,-,N/A,,Clear,340,2014-08-25 03:53:00
10:53 PM,62.1,41.0,46,29.83,10.0,North,6.9,-,N/A,,Clear,350,2014-08-25 05:53:00
11:53 PM,64.0,39.0,40,29.82,10.0,NNE,12.7,21.9,N/A,,Mostly Cloudy,20,2014-08-25 06:53:00